When you browse on this site, cookies collect data to enhance your experience and personalize the content and advertising you see.
Visit our Privacy Policy to learn more. By continuing to use the site, you agree to this use of cookies and data.
  • Em Portugal
  • Lista de países
  • Para 7 dias
  • Temperatura da água
  • Mapas de satélite
  • Mapa do tempo
  • Widgets de tempo
  • user-avatar
    Iniciar Sessão

    Previsão horária em Silkhet

    Hoje, 16 Novembro, Sexta-feira

    Tempo Temperatura Precipitação Vento Pressão Humidade
    00:00 +22°C° 0 mm 1 m/s 759 mmHg 71%
    01:00 +21°C° 0 mm 1 m/s 759 mmHg 73%
    02:00 +21°C° 0 mm 1 m/s 759 mmHg 74%
    03:00 +20°C° 0 mm 1 m/s 759 mmHg 75%
    04:00 +19°C° 0 mm 2 m/s 759 mmHg 77%
    05:00 +19°C° 0 mm 2 m/s 759 mmHg 78%
    06:00 +19°C° 0 mm 2 m/s 759 mmHg 84%
    07:00 +21°C° 0 mm 2 m/s 759 mmHg 78%
    08:00 +24°C° 0 mm 2 m/s 759 mmHg 72%
    09:00 +26°C° 0 mm 2 m/s 759 mmHg 66%
    10:00 +27°C° 0 mm 2 m/s 759 mmHg 60%
    11:00 +29°C° 0 mm 2 m/s 759 mmHg 54%
    12:00 +31°C° 0 mm 1 m/s 758 mmHg 48%
    13:00 +31°C° 0 mm 1 m/s 758 mmHg 46%
    14:00 +31°C° 0 mm 1 m/s 757 mmHg 44%
    15:00 +31°C° 0 mm 1 m/s 757 mmHg 42%
    16:00 +29°C° 0 mm 1 m/s 757 mmHg 48%
    17:00 +27°C° 0 mm 1 m/s 757 mmHg 54%
    18:00 +25°C° 0 mm 1 m/s 757 mmHg 55%
    19:00 +25°C° 0 mm 1 m/s 757 mmHg 58%
    20:00 +24°C° 0 mm 1 m/s 758 mmHg 60%
    21:00 +23°C° 0 mm 2 m/s 758 mmHg 62%
    22:00 +23°C° 0 mm 2 m/s 758 mmHg 64%
    23:00 +21°C° 0 mm 2 m/s 758 mmHg 67%

    Amanhã, 17 Novembro, Sábado

    Tempo Temperatura Precipitação Vento Pressão Humidade
    00:00 +21°C° 0 mm 2 m/s 758 mmHg 69%
    01:00 +20°C° 0 mm 2 m/s 758 mmHg 71%
    02:00 +20°C° 0 mm 2 m/s 758 mmHg 73%
    03:00 +20°C° 0 mm 2 m/s 758 mmHg 75%
    04:00 +19°C° 0 mm 2 m/s 758 mmHg 76%
    05:00 +19°C° 0 mm 2 m/s 758 mmHg 77%
    06:00 +19°C° 0 mm 2 m/s 758 mmHg 79%
    07:00 +21°C° 0 mm 2 m/s 759 mmHg 73%
    08:00 +23°C° 0 mm 2 m/s 759 mmHg 68%
    09:00 +25°C° 0 mm 2 m/s 759 mmHg 63%
    10:00 +27°C° 0 mm 2 m/s 759 mmHg 58%
    11:00 +29°C° 0 mm 2 m/s 758 mmHg 53%
    12:00 +30°C° 0 mm 2 m/s 758 mmHg 48%
    13:00 +30°C° 0 mm 1 m/s 757 mmHg 47%
    14:00 +31°C° 0 mm 1 m/s 757 mmHg 46%
    15:00 +31°C° 0 mm 1 m/s 756 mmHg 45%
    16:00 +29°C° 0 mm 1 m/s 756 mmHg 50%
    17:00 +27°C° 0 mm 2 m/s 756 mmHg 55%
    18:00 +26°C° 0 mm 2 m/s 756 mmHg 60%
    19:00 +25°C° 0 mm 2 m/s 757 mmHg 62%
    20:00 +24°C° 0 mm 2 m/s 758 mmHg 64%
    21:00 +23°C° 0 mm 2 m/s 758 mmHg 66%
    22:00 +23°C° 0 mm 2 m/s 758 mmHg 67%
    23:00 +22°C° 0 mm 1 m/s 759 mmHg 69%

    Depois de amanhã, 18 Novembro, Domingo

    Tempo Temperatura Precipitação Vento Pressão Humidade
    00:00 +22°C° 0 mm 1 m/s 759 mmHg 70%
    01:00 +22°C° 0 mm 1 m/s 759 mmHg 72%
    02:00 +20°C° 0 mm 2 m/s 759 mmHg 73%
    03:00 +20°C° 0 mm 2 m/s 759 mmHg 74%
    04:00 +20°C° 0 mm 2 m/s 759 mmHg 75%
    05:00 +19°C° 0 mm 2 m/s 759 mmHg 77%
    06:00 +19°C° 0 mm 2 m/s 759 mmHg 78%
    07:00 +21°C° 0 mm 2 m/s 760 mmHg 73%
    08:00 +24°C° 0 mm 2 m/s 760 mmHg 67%
    09:00 +26°C° 0 mm 2 m/s 761 mmHg 61%
    10:00 +27°C° 0 mm 2 m/s 760 mmHg 57%
    11:00 +29°C° 0 mm 2 m/s 760 mmHg 52%
    12:00 +30°C° 0 mm 2 m/s 759 mmHg 48%
    13:00 +31°C° 0 mm 1 m/s 759 mmHg 46%
    14:00 +31°C° 0 mm 1 m/s 758 mmHg 44%
    15:00 +29°C° 0 mm 0 m/s 757 mmHg 42%
    16:00 +29°C° 0 mm 1 m/s 757 mmHg 47%
    17:00 +27°C° 0 mm 1 m/s 758 mmHg 52%
    18:00 +25°C° 0 mm 1 m/s 758 mmHg 57%
    19:00 +25°C° 0 mm 1 m/s 758 mmHg 59%
    20:00 +24°C° 0 mm 1 m/s 759 mmHg 60%
    21:00 +23°C° 0 mm 2 m/s 760 mmHg 61%
    22:00 +23°C° 0 mm 2 m/s 760 mmHg 63%
    23:00 +21°C° 0 mm 2 m/s 760 mmHg 64%

    19 Novembro, Segunda-feira

    Tempo Temperatura Precipitação Vento Pressão Humidade
    00:00 +20°C° 0 mm 2 m/s 760 mmHg 65%
    01:00 +20°C° 0 mm 2 m/s 760 mmHg 67%
    02:00 +20°C° 0 mm 2 m/s 759 mmHg 69%
    03:00 +20°C° 0 mm 1 m/s 759 mmHg 71%
    04:00 +19°C° 0 mm 2 m/s 760 mmHg 72%
    05:00 +18°C° 0 mm 2 m/s 760 mmHg 74%
    06:00 +18°C° 0 mm 2 m/s 760 mmHg 76%
    07:00 +20°C° 0 mm 2 m/s 761 mmHg 70%
    08:00 +23°C° 0 mm 2 m/s 761 mmHg 65%
    09:00 +25°C° 0 mm 2 m/s 762 mmHg 59%
    10:00 +27°C° 0 mm 2 m/s 761 mmHg 53%
    11:00 +28°C° 0 mm 2 m/s 761 mmHg 47%
    12:00 +30°C° 0 mm 1 m/s 760 mmHg 42%
    13:00 +30°C° 0 mm 1 m/s 760 mmHg 40%
    14:00 +30°C° 0 mm 1 m/s 759 mmHg 39%
    15:00 +31°C° 0 mm 1 m/s 759 mmHg 37%
    16:00 +28°C° 0 mm 1 m/s 759 mmHg 42%
    17:00 +26°C° 0 mm 1 m/s 759 mmHg 46%
    18:00 +24°C° 0 mm 1 m/s 759 mmHg 51%
    19:00 +23°C° 0 mm 1 m/s 760 mmHg 53%
    20:00 +23°C° 0 mm 1 m/s 760 mmHg 54%
    21:00 +22°C° 0 mm 1 m/s 761 mmHg 56%
    22:00 +21°C° 0 mm 1 m/s 761 mmHg 57%
    23:00 +21°C° 0 mm 1 m/s 761 mmHg 59%

    20 Novembro, Terça-feira

    Tempo Temperatura Precipitação Vento Pressão Humidade
    00:00 +20°C° 0 mm 1 m/s 761 mmHg 60%
    01:00 +20°C° 0 mm 1 m/s 760 mmHg 62%
    02:00 +19°C° 0 mm 1 m/s 760 mmHg 64%
    03:00 +19°C° 0 mm 1 m/s 760 mmHg 66%
    04:00 +19°C° 0 mm 1 m/s 760 mmHg 67%
    05:00 +18°C° 0 mm 1 m/s 760 mmHg 69%
    06:00 +18°C° 0 mm 1 m/s 760 mmHg 71%
    07:00 +19°C° 0 mm 2 m/s 761 mmHg 66%
    08:00 +21°C° 0 mm 2 m/s 761 mmHg 61%
    09:00 +24°C° 0 mm 2 m/s 762 mmHg 56%
    10:00 +26°C° 0 mm 2 m/s 761 mmHg 51%
    11:00 +27°C° 0 mm 1 m/s 760 mmHg 46%
    12:00 +29°C° 0 mm 1 m/s 760 mmHg 41%
    13:00 +29°C° 0 mm 1 m/s 759 mmHg 41%
    14:00 +29°C° 0 mm 1 m/s 759 mmHg 40%
    15:00 +29°C° 0 mm 2 m/s 758 mmHg 39%
    16:00 +27°C° 0 mm 1 m/s 758 mmHg 45%
    17:00 +25°C° 0 mm 1 m/s 759 mmHg 50%
    18:00 +23°C° 0 mm 1 m/s 759 mmHg 55%
    19:00 +23°C° 0 mm 1 m/s 759 mmHg 57%
    20:00 +22°C° 0 mm 1 m/s 760 mmHg 59%
    21:00 +21°C° 0 mm 1 m/s 761 mmHg 61%
    22:00 +21°C° 0 mm 1 m/s 760 mmHg 63%
    23:00 +20°C° 0 mm 1 m/s 760 mmHg 65%

    21 Novembro, Quarta-feira

    Tempo Temperatura Precipitação Vento Pressão Humidade
    00:00 +20°C° 0 mm 1 m/s 760 mmHg 67%
    01:00 +20°C° 0 mm 1 m/s 760 mmHg 69%
    02:00 +19°C° 0 mm 1 m/s 760 mmHg 71%
    03:00 +19°C° 0 mm 1 m/s 760 mmHg 73%
    04:00 +18°C° 0 mm 1 m/s 760 mmHg 75%
    05:00 +18°C° 0 mm 1 m/s 760 mmHg 76%
    06:00 +16°C° 0 mm 1 m/s 761 mmHg 78%
    07:00 +19°C° 0 mm 1 m/s 761 mmHg 72%
    08:00 +22°C° 0 mm 1 m/s 762 mmHg 66%
    09:00 +24°C° 0 mm 2 m/s 762 mmHg 60%
    10:00 +25°C° 0 mm 1 m/s 762 mmHg 55%
    11:00 +27°C° 0 mm 1 m/s 761 mmHg 50%
    12:00 +29°C° 0 mm 1 m/s 761 mmHg 44%
    13:00 +29°C° 0 mm 1 m/s 760 mmHg 43%
    14:00 +29°C° 0 mm 1 m/s 759 mmHg 42%
    15:00 +29°C° 0 mm 1 m/s 759 mmHg 41%
    16:00 +27°C° 0 mm 1 m/s 759 mmHg 46%
    17:00 +25°C° 0 mm 1 m/s 759 mmHg 52%
    18:00 +23°C° 0 mm 1 m/s 760 mmHg 57%
    19:00 +22°C° 0 mm 1 m/s 760 mmHg 59%
    20:00 +22°C° 0 mm 1 m/s 761 mmHg 61%
    21:00 +21°C° 0 mm 1 m/s 761 mmHg 63%
    22:00 +21°C° 0 mm 1 m/s 761 mmHg 65%
    23:00 +20°C° 0 mm 1 m/s 761 mmHg 68%
    Mostrar mais